Regional Weather Roundup
Issued by NWS

Home | Current Version | Previous Version | Text Only | Print | Product List | Glossary Off
Versions: 1 2 3 4 5 6 7 8 9 10 11 12 13 14 15 16 17 18 19 20 21 22 23 24 25 26 27 28 29 30 31 32 33 34 35 36 37 38 39 40 41 42 43 44 45 46 47 48 49 50

494
ASUS43 KLSX 070407
RWRMO

WEATHER SUMMARY FOR MISSOURI
NATIONAL WEATHER SERVICE SPRINGFIELD MO
1000 PM CST SAT FEB 06 2016

NOTE: "FAIR" INDICATES FEW OR NO CLOUDS BELOW 12,000 FEET WITH NO
       SIGNIFICANT WEATHER AND/OR OBSTRUCTIONS TO VISIBILITY.
       CURRENT SKY AND/OR WEATHER CONDITIONS ARE NOT AVAILABLE FOR
       CHILLICOTHE AND FARMINGTON.

MOZ001>031-035>038-043-044-053-054-070500-
...NORTHERN AND WESTERN MISSOURI...

CITY           SKY/WX    TMP DP  RH WIND       PRES   REMARKS
KANSAS CTY INT PTCLDY    41  28  60 SW15      30.08F
KANSAS C DTWN  CLOUDY    43  27  53 SW9       30.10F
LEE`S SUMMIT   PTCLDY    40  28  62 SW15      30.11F
ST JOSEPH      PTCLDY    39  28  64 SW10      30.06F
CHILLICOTHE      N/A     40  30  67 S8        30.09F
KIRKSVILLE     MOCLDY    39  29  67 SW10      30.08F

$$
MOZ066>068-077>081-088>096-101>105-070500-
...SOUTHWEST MISSOURI...

CITY           SKY/WX    TMP DP  RH WIND       PRES   REMARKS
SPRINGFIELD    CLEAR     36  27  69 SW7       30.19F
JOPLIN         CLEAR     38  27  64 SW8       30.21F

$$
MOZ032>034-039>042-045>050-055>058-069>072-070500-
...CENTRAL MISSOURI...

CITY           SKY/WX    TMP DP  RH WIND       PRES   REMARKS
COLUMBIA       CLEAR     36  26  67 SW9       30.15F WCI  29
JEFFERSON CITY CLEAR     37  28  70 CALM      30.17F
ROLLA          CLEAR     32  25  75 SW7       30.17S WCI  26
SEDALIA        PTCLDY    40  28  62 SW9       30.15F
WHITEMAN AFB   PTCLDY    33  27  79 SW10      30.13F WCI  25
WARRENSBURG    PTCLDY    37  30  75 S9        30.13F
OSAGE BEACH    CLEAR     39  28  65 S8        30.18F

$$
MOZ051-052-059>065-070500-
...EAST CENTRAL MISSOURI...

CITY           SKY/WX    TMP DP  RH WIND       PRES   REMARKS
ST LOUIS INTL  CLEAR     41  26  55 SW7       30.18S
SPIRIT OF STL  CLEAR     31  27  85 CALM      30.17F
ST CHARLES     CLEAR     34  28  79 CALM      30.16F

$$
MOZ072>076-082>087-097>100-106>115-070500-
...SOUTH CENTRAL AND SOUTHEAST MISSOURI...

CITY           SKY/WX    TMP DP  RH WIND       PRES   REMARKS
CAPE GIRARDEAU CLEAR     40  24  53 SW8       30.25F
FARMINGTON     CLEAR     39  18  42 S8        30.22S
POPLAR BLUFF   CLEAR     38  25  59 SW6       30.26F
WEST PLAINS    CLEAR     43  15  32 S8        30.23S

$$



USA.gov is the U.S. government's official web portal to all federal, state and local government web resources and services.